Location: Beadle
(51.4667°N, 109.0000°W)
Time: 18:42:44
(UTC+00:00)

O/OREOS (USA 219) - Pass Details

Date: 30 June 2022
Orbit: 621 x 646 km, 72.0° (Epoch: 22 May)

Event Time Altitude Azimuth Distance (km) Brightness Sun altitude
Rises 06:49:31 0° 334° (NNW) 2,963 ? -15.1°
Reaches altitude 10° 06:51:55 10° 342° (NNW) 2,052 ? -15.1°
Maximum altitude 06:56:18 41° 53° (NE) 940 ? -15.2°
Enters shadow 07:00:25 11° 123° (ESE) 1,961 ? -15.2°
